THOR AGENA D R/B, 733

Orbit data source: Space-Track

THOR AGENA D R/B, 733 is space debris in SSO originally from a launch on Sun, 19 Jan 1964 UTC launched from the Air Force Western Test Range (AFWTR). Debris objects in space refer to the collection of defunct objects orbiting the Earth. Examples of debris include non-operational satellites, rocket bodies, and fragments generated from explosions, collisions, or faulty payload assembly.

Loading next visibility...
Identifier
733, 1964-002A
Orbit
SSO
Country
Flag of USUS
Related business
Manufacturer
LMSC
Mission
Spacecraft
Bus & Motor
AGENA D, Unknown motor
Mass
600 kg wet, 600 kg dry
Launch date (UTC)
1964-01-19 (62 years ago)
Launch vehicle
Unknown
Launch site
Air Force Western Test Range (AFWTR)
Object type
Payload
Rocket body
Debris
Shape & HBR
Unknown
Radar Cross Section
Large (>1 m²)

Expand to show TLE details & history
Last TLE update: 1 day ago

TLE from 1 day ago
0 THOR AGENA D R/B
1 00733U 64002A   25315.25287161  .00000452  00000-0  17854-3 0  9992
2 00733  99.1222 317.1679 0032012 242.5904 117.2021 14.33932083221328
Epoch: 2025-11-11T06:04Z
TLE epoch observation values (Epoch: 2025-11-11T06:04:08.107Z)
Latitude
-0.00002°
Longitude
175.49204°
Altitude
792.07 km
Speed
7.452 km/s
True Right ascension
21h 08m 40s
True Declination
0° 00' 00"
Sunlit
Object was in daylight at epoch
Visualization orbit readout
Latitude
Unknown
Longitude
Unknown
Altitude
Unknown
Speed
Unknown
Apparent Right ascension
Unknown
Apparent Declination
Unknown
Sunlit
N/A
Visualization observer readout
Local Sidereal Time
02:13:12
Azimuth
Unknown
Elevation
Unknown
Doppler factor
Unknown
Orbital elements
Apogee altitude
798.679 km
Perigee altitude
752.877 km
Semi-major axis
7,153.915 km
Eccentricity
0.0032
Inclination
99.1222°
RAAN
317.1679°
Arg. of periapsis
242.5904°
True anomaly
117.52776°
Mean anomaly
117.2021°
Eccentric anomaly
117.36499°
Mean motion
3.58697 °/min
Orbital period
100.36 mins
BSTAR
0.00017854
Loading maneuver chart data...
Computing Atmospheric mass density...
Loading historical data...
Loading historical data...
Loading historical data...
Loading historical data...
Loading historical data...
Loading historical data...
Loading historical data...
Other satellites on launch #2 in the year 1964 (1964-01-19 UTC)

Documentation

Showing up to 5 results
|